Location: Piotrkow Trybunalski
(51.4000°N, 19.6830°E)
Time: 07:40:00
(UTC+01:00)

deb Explorer IX - Visible Passes

Search period start: 06 February 2023 00:00
Search period end: 16 February 2023 00:00
Orbit: 534 x 1048 km, 38.8° (Epoch: 05 February)

Date Brightness Start Highest point End Pass type
(mag) Time Alt. Az. Time Alt. Az. Time Alt. Az.
06 Feb ? 04:40:03 14° S 04:40:03 14° S 04:41:49 10° SSE visible
07 Feb ? 04:08:58 11° SSE 04:08:58 11° SSE 04:09:19 10° SE visible
07 Feb ? 05:51:23 10° SSW 05:51:50 10° SSW 05:52:18 10° SSW visible
08 Feb ? 05:18:30 11° SSW 05:19:10 11° SSW 05:20:23 10° S visible
09 Feb ? 04:47:23 11° S 04:47:23 11° S 04:48:10 10° S visible
